This is the latest recevied weather packets stored in our database for station/object KD7CIH. If no packets are shown the sender has not sent any weather packets the latest 10 day(s).
| Time | Temp. | Humidity | Pressure | Rain* | Wind** | Luminosity | Snow |
|---|---|---|---|---|---|---|---|
| 1788123275 | 21.11° C | 42% | 1014.7 hPa | 0 mm | - | - | - |
| 1788122973 | 21.11° C | 44% | 1014.7 hPa | 0 mm | - | - | - |
| 1788122674 | 21.11° C | 44% | 1014.8 hPa | 0 mm | - | - | - |
| 1788122373 | 21.11° C | 46% | 1015.1 hPa | 0 mm | - | - | - |
| 1788122075 | 20.56° C | 44% | 1014.9 hPa | 0 mm | - | - | - |
| 1788121773 | 20.56° C | 46% | 1015.1 hPa | 0 mm | - | - | - |
| 1788121472 | 20.56° C | 47% | 1014.9 hPa | 0 mm | - | - | - |
| 1788121173 | 20° C | 47% | 1015.1 hPa | 0 mm | - | - | - |
| 1788120874 | 20° C | 50% | 1015.2 hPa | 0 mm | - | - | - |
| 1788120700 | 20° C | 49% | 1015.2 hPa | 0 mm | - | - | - |
| 1788120273 | 19.44° C | 53% | 1015.2 hPa | 0 mm | - | - | - |
| 1788119975 | 19.44° C | 52% | 1015.1 hPa | 0 mm | - | - | - |
| 1788119673 | 18.89° C | 52% | 1015.2 hPa | 0 mm | - | - | - |
| 1788119373 | 19.44° C | 53% | 1015.3 hPa | 0 mm | - | - | - |
| 1788119073 | 19.44° C | 51% | 1015.4 hPa | 0 mm | - | - | - |
| 1788118775 | 19.44° C | 52% | 1015.5 hPa | 0 mm | - | - | - |
| 1788118474 | 19.44° C | 54% | 1015.4 hPa | 0 mm | - | - | - |
| 1788118174 | 19.44° C | 52% | 1015.5 hPa | 0 mm | - | - | - |
| 1788117874 | 19.44° C | 53% | 1015.5 hPa | 0 mm | - | - | - |
| 1788117577 | 18.89° C | 57% | 1015.5 hPa | 0 mm | - | - | - |
| 1788117273 | 18.33° C | 59% | 1015.7 hPa | 0 mm | - | - | - |
| 1788116973 | 18.33° C | 59% | 1015.8 hPa | 0 mm | - | - | - |
| 1788116673 | 18.33° C | 59% | 1015.8 hPa | 0 mm | - | - | - |
| 1788116375 | 17.78° C | 61% | 1015.8 hPa | 0 mm | - | - | - |
| 1788116200 | 17.78° C | 60% | 1015.9 hPa | 0 mm | - | - | - |
* Rain latest hour (hover to see other rain measurements)
** Current wind speed in m/s (hover to see current wind gust speed)